Theta_e
325 331 344 345 347 348 349 349 349 349 349 348 348 348 348 346 346 346 347 347 348 348 348 349 349 349 349 348 347 347 347 347 347 347 347 347 349 346 353 353 352 349 352
326 331 341 344 344 346 348 348 348 349 348 347 347 346 345 344 344 343 343 344 345 347 347 346 346 345 345 346 347 347 346 346 346 346 345 345 346 345 351 353 352 350 351
327 332 335 342 342 343 345 346 346 347 347 345 344 342 341 341 342 340 339 340 342 342 343 342 341 339 340 342 343 345 346 346 346 345 342 336 338 351 351 353 353 352 352
326 327 330 339 339 339 339 340 341 341 340 339 339 337 336 337 338 337 335 334 335 337 340 339 336 334 334 336 337 339 340 339 339 341 337 335 336 347 343 348 348 350 350
321 324 328 337 338 338 338 338 338 337 337 337 334 335 334 333 331 329 327 326 326 330 331 329 326 325 324 326 328 331 332 332 332 332 334 335 335 340 345 347 346 346 346
318 322 330 335 336 336 335 337 336 336 334 333 331 331 328 327 324 323 322 322 322 323 322 322 321 321 320 320 321 321 321 321 320 316 323 330 333 341 346 347 348 347 345
316 320 324 333 332 332 332 333 331 333 329 327 326 325 323 321 320 320 319 319 319 319 320 319 319 318 318 318 317 316 315 316 310 306 306 311 321 335 342 346 347 346 345
315 316 320 327 330 329 328 327 327 328 326 324 322 321 320 319 318 318 317 317 317 317 317 317 317 316 316 317 317 315 315 315 306 304 307 310 323 332 342 344 347 345 343
312 312 313 316 321 326 326 325 324 324 323 321 320 319 317 315 314 314 314 315 316 316 316 316 315 313 313 313 312 312 312 311 299 302 305 307 321 326 332 337 340 344 343
309 309 308 309 310 310 314 322 322 322 320 319 317 315 314 312 309 310 310 312 314 314 313 312 311 310 309 310 310 310 309 307 300 301 302 307 317 322 325 327 329 332 336
306 307 305 305 305 305 306 312 318 319 317 316 314 313 307 298 300 301 308 310 310 310 310 309 308 306 305 305 306 306 304 299 299 300 301 310 314 318 321 322 323 325 327
302 302 304 303 302 300 306 306 305 305 302 301 300 301 297 295 296 301 306 307 306 305 306 306 304 302 299 295 295 300 296 296 297 297 298 308 311 315 317 319 320 321 323
301 301 302 301 300 298 301 300 298 298 297 297 295 296 295 296 296 294 294 294 293 296 292 294 293 293 292 293 293 293 294 294 294 295 299 306 308 311 315 317 319 320 321
294 298 299 299 298 297 296 298 296 296 294 294 294 295 293 292 292 292 291 291 290 290 289 289 290 291 291 292 292 292 291 292 292 294 296 303 305 308 312 314 316 318 319
292 295 296 297 297 297 294 295 294 294 295 294 293 294 293 292 291 291 290 289 288 288 288 288 288 289 289 290 291 291 290 290 291 292 293 300 303 306 309 312 314 317 318
295 294 295 296 296 295 294 294 295 294 294 293 291 292 293 291 290 290 289 289 288 288 287 288 287 288 288 289 289 290 289 290 290 291 292 293 301 303 306 310 312 314 315
296 295 293 295 295 294 294 294 294 294 294 292 290 290 291 290 289 288 288 287 287 287 287 287 287 287 286 288 287 288 289 290 290 290 290 291 293 299 303 307 309 311 312
296 294 294 296 294 294 294 294 294 293 293 291 289 289 290 289 289 287 287 286 287 286 286 286 285 285 285 285 285 286 287 288 289 289 290 290 291 293 298 304 307 308 309
296 295 293 294 293 294 293 293 292 291 291 291 289 288 288 288 288 287 286 286 286 286 285 286 284 284 284 284 285 286 286 287 287 289 289 290 291 293 293 299 304 306 308
296 296 294 293 293 293 292 290 289 289 289 289 288 287 287 287 287 286 285 285 286 285 284 284 283 284 284 284 286 286 285 286 286 286 287 289 289 290 292 293 295 297 303
295 294 292 292 292 293 291 290 289 289 288 286 286 287 286 286 286 285 285 284 285 284 284 283 284 283 283 283 282 283 284 285 285 285 285 286 288 289 289 290 291 292 294
295 293 292 292 291 293 293 292 290 288 285 287 286 286 286 286 285 285 284 283 283 283 283 283 283 282 282 283 281 280 279 282 285 285 285 285 285 286 288 290 290 292 290
292 292 291 292 291 292 292 289 286 285 284 283 284 284 284 284 285 284 284 283 283 283 282 282 282 282 281 281 282 281 278 277 280 284 284 285 284 285 286 287 287 288 291
292 291 291 291 291 292 291 289 287 289 286 286 286 284 283 284 284 284 283 283 282 282 281 282 283 281 281 280 281 283 281 281 278 277 282 282 284 284 284 285 286 287 288
290 290 291 291 291 290 290 290 288 288 288 283 283 282 283 282 283 283 282 281 281 281 281 282 281 281 281 280 280 280 280 279 279 278 277 279 282 282 284 284 284 285 286
287 289 289 289 289 289 289 288 288 287 284 283 283 283 282 282 282 282 282 281 281 281 281 281 281 280 280 280 279 279 279 278 278 278 276 277 277 280 282 283 283 284 285
Wind_Speed
5 6 8 9 10 11 10 11 11 12 13 11 11 12 12 11 10 10 11 9 8 8 9 10 11 11 9 8 8 7 7 8 9 9 10 11 9 6 3 2 2 2 4
8 6 9 10 10 10 12 14 13 12 13 13 12 12 11 10 11 10 9 9 11 12 12 11 12 12 11 10 6 5 7 8 8 8 10 9 11 8 2 4 1 2 3
9 7 7 10 12 11 9 12 12 11 13 13 13 11 11 9 10 11 10 10 12 11 11 12 12 9 11 12 12 12 11 10 9 8 9 5 6 6 5 4 0 2 7
9 7 7 11 13 11 9 9 9 8 8 7 9 9 8 9 10 12 10 10 9 8 11 12 10 10 11 12 12 12 12 12 13 13 5 5 6 7 1 4 6 8 9
7 6 6 11 14 13 11 10 9 9 9 9 9 11 11 10 11 11 11 11 10 10 11 10 10 11 11 11 11 12 12 14 15 10 7 6 5 8 5 4 3 3 4
7 7 8 13 14 14 15 15 14 14 13 12 12 13 12 12 11 11 11 11 11 11 10 10 11 11 11 11 11 12 13 14 14 8 8 9 8 13 13 2 1 1 3
7 6 7 12 14 15 15 16 16 16 15 15 14 14 13 12 11 11 11 11 11 11 11 10 10 11 10 11 12 12 14 14 7 7 7 8 9 18 16 10 2 1 2
10 7 6 9 12 14 16 16 16 15 15 14 14 14 14 13 12 11 11 11 10 10 10 11 11 11 11 12 13 13 15 15 9 6 6 5 12 15 13 11 5 3 2
8 7 6 6 7 10 12 13 14 15 15 14 14 14 14 13 11 10 10 10 10 10 11 11 12 12 11 12 12 13 14 14 6 5 7 5 17 15 14 14 15 11 5
7 7 7 6 5 5 5 10 12 14 15 15 15 14 13 13 11 11 7 9 10 11 11 12 12 11 11 12 13 14 13 11 6 6 5 6 17 16 16 15 15 15 15
7 9 8 8 7 6 5 5 10 14 14 14 13 10 9 5 6 6 8 10 10 11 10 11 11 11 10 11 12 12 10 3 5 4 3 15 16 16 16 15 16 16 16
13 11 11 9 8 7 6 6 6 6 5 6 6 6 5 5 5 5 6 10 10 9 9 10 10 10 8 4 3 7 3 5 4 4 3 14 15 15 14 14 14 14 16
15 9 13 11 10 9 7 4 3 3 3 4 6 6 5 4 4 4 3 3 3 6 3 5 5 4 5 4 4 4 5 4 3 3 6 14 15 14 14 13 13 14 14
14 15 13 12 11 9 5 6 5 4 4 4 5 6 4 3 4 4 3 4 4 2 3 3 2 4 5 5 5 5 5 4 3 3 5 12 14 15 14 13 13 14 14
12 15 15 14 13 11 9 6 5 5 5 5 4 5 5 5 5 4 4 4 3 3 2 2 3 3 4 5 5 5 6 6 6 4 4 13 15 15 13 13 12 12 13
15 15 14 16 13 12 10 10 7 5 5 5 5 5 6 5 5 5 5 4 3 3 2 3 3 4 4 4 5 5 6 5 5 6 4 5 13 12 12 12 13 13 14
17 14 17 17 14 15 13 10 7 7 6 6 5 6 7 6 6 6 5 4 4 4 4 3 3 3 4 4 5 5 4 5 5 6 5 5 6 12 12 13 14 13 12
13 18 17 16 17 16 14 10 8 7 7 6 5 5 8 7 7 6 5 4 4 3 3 3 3 3 4 4 4 4 5 5 6 5 5 5 4 4 8 13 13 14 14
19 17 18 18 19 17 12 10 8 8 7 6 5 5 6 7 7 6 5 5 5 4 3 2 3 2 3 4 4 5 5 5 5 5 6 6 6 5 4 9 11 12 12
16 17 16 15 16 15 10 6 4 6 5 6 6 6 7 6 7 6 5 5 5 4 3 2 3 2 2 2 4 5 5 4 4 4 4 5 5 4 5 6 5 5 12
12 15 17 18 17 15 11 10 7 10 7 5 6 8 9 7 7 7 5 6 5 5 4 3 3 3 3 4 3 4 4 4 1 2 2 3 4 5 6 5 4 4 5
17 17 18 19 20 17 13 10 6 6 3 5 6 7 8 9 7 7 7 6 6 4 4 3 3 3 2 4 3 1 5 6 4 5 2 3 4 4 6 8 8 6 5
15 19 20 20 20 17 14 9 5 5 4 3 5 5 7 7 7 7 7 6 6 5 5 4 4 5 4 1 4 3 3 2 4 4 5 4 7 5 4 7 6 5 5
15 13 16 17 18 15 16 14 13 12 9 7 8 5 5 8 8 8 8 7 6 4 6 5 4 4 5 4 2 3 2 2 3 7 3 4 4 8 8 4 5 5 8
11 14 14 16 16 15 16 16 13 11 7 4 4 9 8 6 7 7 7 7 7 5 5 6 5 6 4 5 4 2 2 1 1 2 8 9 8 4 7 3 5 8 7
8 11 14 16 15 15 16 15 17 17 10 8 9 11 9 7 7 8 8 6 6 6 7 5 5 5 6 5 4 4 3 2 1 1 3 4 10 10 9 8 6 4 4
Wind_Direction
195 181 164 169 116 134 140 145 143 139 131 120 108 103 98 91 80 73 70 66 63 63 59 58 59 54 52 48 37 29 40 29 15 1 351 345 344 337 323 69 19 1 3
147 167 164 160 149 137 139 128 132 136 132 123 112 109 101 91 90 79 74 58 58 63 66 63 56 44 35 31 31 34 32 31 14 356 346 349 344 323 281 105 73 333 0
149 150 152 157 161 153 144 139 137 136 133 120 106 91 91 77 79 79 68 50 43 48 58 56 51 37 24 18 20 28 22 17 2 347 341 346 334 10 77 98 13 36 24
148 148 153 164 166 158 141 130 134 132 124 127 118 102 106 113 94 83 76 68 64 58 52 50 45 35 27 19 10 10 4 359 352 343 342 344 330 324 87 67 35 26 24
142 149 158 166 162 157 148 141 139 129 133 142 128 124 113 105 99 94 88 77 67 65 62 52 42 32 25 19 9 8 3 356 350 355 338 331 329 320 339 106 88 59 34
148 149 159 164 157 152 150 145 147 153 138 137 131 122 115 109 100 92 87 82 76 70 62 54 47 37 27 19 11 12 4 356 354 346 340 332 334 333 327 228 131 42 9
147 153 156 165 161 158 153 151 153 148 145 141 136 131 127 117 106 98 92 86 81 74 65 61 52 46 40 34 29 22 12 4 1 344 331 327 327 329 319 314 220 179 12
149 155 161 165 167 164 160 158 157 153 149 148 145 137 130 124 116 111 102 92 92 89 80 72 61 55 47 43 41 30 23 25 10 354 334 330 342 338 338 322 266 232 271
151 149 155 159 165 167 162 160 160 158 155 153 147 138 131 126 120 114 108 101 106 94 84 76 70 55 51 44 36 31 25 22 16 359 357 352 350 346 343 341 347 343 309
163 165 166 162 151 151 157 161 162 161 160 157 152 146 141 133 121 119 101 97 98 85 80 76 70 60 49 41 35 29 22 18 7 1 353 351 353 350 349 345 342 339 335
192 183 175 172 169 168 162 167 162 163 161 161 156 151 129 137 130 113 105 96 89 85 79 75 68 61 57 45 35 28 21 6 6 1 348 354 352 347 344 342 341 335 328
199 197 183 177 176 168 173 168 160 158 153 152 157 154 148 144 139 119 91 90 81 71 72 68 59 52 44 41 20 24 12 4 356 347 343 351 351 343 338 338 335 329 326
200 191 191 181 178 173 175 165 169 161 161 166 167 164 161 148 127 115 97 86 76 59 40 47 39 40 34 32 21 11 1 359 346 331 335 344 342 337 334 335 334 332 327
192 194 185 184 178 180 159 174 175 168 169 173 180 170 151 148 135 130 122 116 94 81 82 69 51 48 40 25 27 6 359 349 337 322 320 333 336 334 331 334 335 333 330
202 197 192 181 182 180 176 171 173 179 176 174 172 176 161 159 152 140 130 124 123 121 126 91 75 55 40 17 14 9 349 339 326 315 314 322 332 332 333 336 336 340 339
204 200 185 188 183 175 180 180 182 169 167 166 174 182 177 159 152 145 137 136 134 146 143 103 78 55 36 16 4 357 335 320 315 309 308 311 318 326 332 337 341 344 343
204 190 189 184 178 180 183 180 173 176 167 174 174 176 171 164 166 146 144 149 162 165 127 120 81 69 48 14 353 334 317 308 309 311 316 307 312 318 329 340 339 339 345
193 190 185 185 183 182 182 176 175 172 168 172 168 172 177 169 156 152 146 157 157 135 138 106 66 57 37 11 337 314 304 308 304 315 309 307 309 310 327 328 325 330 343
197 189 187 184 183 181 173 170 165 164 169 176 167 172 172 168 162 143 150 158 158 140 111 107 70 80 32 352 319 307 307 303 309 320 322 316 311 322 322 322 328 336 348
198 189 184 180 175 169 158 139 138 160 170 169 175 174 171 172 165 154 153 158 150 134 129 112 116 68 52 341 309 310 300 299 308 320 322 323 321 354 354 9 0 333 335
191 182 178 171 172 164 165 166 169 187 182 178 178 177 174 175 170 161 157 154 159 154 164 156 111 91 41 340 6 336 326 324 96 286 260 284 337 15 12 5 358 348 356
191 186 176 178 172 177 174 175 170 162 174 173 177 180 180 178 174 164 160 162 162 145 144 150 149 116 82 10 72 15 354 337 331 334 326 344 35 19 5 12 2 346 334
184 185 180 178 175 176 170 144 102 87 78 133 187 184 191 177 174 167 166 159 162 148 158 177 175 142 133 68 48 120 354 300 314 315 334 8 356 5 359 335 313 313 313
195 178 174 171 173 174 168 171 171 187 182 194 184 175 176 179 181 177 168 161 161 156 162 177 189 143 123 127 72 74 112 145 341 320 302 348 15 340 322 320 322 309 317
166 171 170 166 173 171 173 180 179 191 186 142 138 158 180 184 181 176 171 165 168 167 167 167 172 154 128 131 131 116 50 10 186 231 311 320 321 337 304 294 305 294 293
147 161 166 170 177 169 178 182 188 194 177 165 172 181 183 182 184 183 175 170 169 166 167 171 177 159 129 118 132 143 156 162 181 185 279 284 284 317 322 307 290 295 317